STARLINK-31972, 59923

Orbit data source: Space-Track

STARLINK-31972, 59923 is a payload satellite owned by SpaceX/Seattle (US) in LEO that was launched on Sat, 01 Jun 2024 UTC via an FALCON 9 launch vehicle from the Air Force Eastern Test Range (AFETR). Payload-class satellites include a variety of spacecraft equipped with specific instruments for various scientific and technological missions. These include communications satellites like Starlink; space stations such as the ISS; scientific satellites like the Hubble; Earth observation satellites from companies like Planet Labs, Umbra, and HawkEye 360; GPS; miniature CubeSats for education and research; and military/defense satellites.

Loading next visibility...
Identifier
59923, 2024-106B
Orbit
LEO
Country
Flag of USUS
Related business
Manufacturer
SpaceX/Seattle
Mission
Operational Commercial Communications
Bus & Motor
STARLINK V2M, Unknown motor
Mass
730 kg wet, ~700 kg dry
Launch date (UTC)
2024-06-01 (1 year ago)
Launch vehicle
FALCON 9
Launch site
Air Force Eastern Test Range (AFETR)
Object type
Payload
Rocket body
Debris
Shape & HBR
Box + 2 Pan, 17.7 m
Radar Cross Section
33.884 m², Large (>1 m²)

Expand to show TLE details & history
Last TLE update: 1 day ago

TLE from 1 day ago
0 STARLINK-31972
1 59923U 24106B   25307.76848872  .00004590  00000-0  17615-3 0  9999
2 59923  43.0029 323.7615 0001563 279.2067  80.8608 15.27590975 81316
Epoch: 2025-11-03T18:26Z
TLE epoch observation values (Epoch: 2025-11-03T18:26:37.425Z)
Latitude
-0°
Longitude
3.84043°
Altitude
482.622 km
Speed
7.626 km/s
True Right ascension
21h 35m 02s
True Declination
0° 00' 00"
Sunlit
Object was in daylight at epoch
Visualization orbit readout
Latitude
Unknown
Longitude
Unknown
Altitude
Unknown
Speed
Unknown
Apparent Right ascension
Unknown
Apparent Declination
Unknown
Sunlit
N/A
Visualization observer readout
Local Sidereal Time
19:50:37
Azimuth
Unknown
Elevation
Unknown
Doppler factor
Unknown
Orbital elements
Apogee altitude
486.034 km
Perigee altitude
483.888 km
Semi-major axis
6,863.098 km
Eccentricity
0.00016
Inclination
43.0029°
RAAN
323.7615°
Arg. of periapsis
279.2067°
True anomaly
80.87848°
Mean anomaly
80.8608°
Eccentric anomaly
80.86964°
Mean motion
3.81736 °/min
Orbital period
94.31 mins
BSTAR
0.00017615
Loading maneuver chart data...
Computing Atmospheric mass density...
Loading historical data...
Loading historical data...
Loading historical data...
Loading historical data...
Loading historical data...
Loading historical data...
Loading historical data...

Documentation

Showing up to 5 results
|